Weather in Romanovka

Russia / Republic of Buryatia     53°13′03″N   112°46′53″E
temp.,
°C
wind,
m/s
gust,
m/s
humid.,
%
clouds,
%
prec.,
mm/h
press.,
hPa
HPBL,
m
17 january, mon
mon1723:00−33nnw001005 0.0 10429
02:00−34ene1110018 0.0 10429
05:00−34nne1110035 0.0 10429
08:00−34nne11100100 0.0 10429
11:00−27nne1190100 0.0 1037119
14:00−22ne1182100 0.0 1033250
17:00−25n119796 0.0 103411
20:00−29nne1110079 0.0 10379
18 january, tue
tue1823:00−31nne1110058 0.0 10409
02:00−33nne1110050 0.0 10429
05:00−33n0010065 0.0 10449
08:00−34ne001006 0.0 10459
11:00−26ene11896 0.0 1043115
14:00−21nw118110 0.0 1040259
17:00−26e00975 0.0 10429
20:00−30ene1110032 0.0 10459
19 january, wed
wed1923:00−31nne0010047 0.0 10469
02:00−30ne01100100 0.0 104411
05:00−26ne1198100 0.0 104127
08:00−24ene1195100 0.0 103948
11:00−20ne0187100 0.0 1036158
14:00−17se0180100 0.0 1033245
17:00−20nne119680 0.0 10349
20:00−26nnw111005 0.0 10379
20 january, thu
thu2023:00−28e00100100 0.0 10399
02:00−26n00100100 0.0 103811
05:00−24ese0099100 0.0 103716
08:00−23ene0099100 0.0 103714
11:00−19nne0088100 0.0 1035149
14:00−16n0187100 0.1 1033263
17:00−19n11100100 0.1 10359
20:00−20ne0010099 0.1 103610
21 january, fri
fri2123:00−20nne11100100 0.1 103712
02:00−19nne1199100 0.3 103631
05:00−18ne1198100 0.3 103640
08:00−19n0099100 0.5 103613
11:00−15nne1190100 0.2 1035195
14:00−13n0184100 0.3 1033334
17:00−18ssw009859 0.0 10359
20:00−24n0010086 0.0 10399